• Join FlightAware (Why Join?)
  • Login
  • US Flag 
04:46PM EDT


 

Airport Tracker/Info


-or-


 

Live Flight TrackerFlight Track Log ✈ N6711L ✈ 10-Dec-2013 ✈ KAPF - 07FA

Flight Track Log - Related Links

Times and Time Zones

All times are in EST time to prevent confusion due to time zone crossing. See the N6711L flight status page for this flight to view local times or setup timezone preferences in your user account.

Time Position Orientation Groundspeed Altitude Reporting Facility
EST Latitude Longitude Course Direction KTS MPH feet Rate Location/Type
11:07AM 26.1497 -81.5964 102° East 177 204 5,100  Level Miami Center
11:08AM 26.1578 -81.5436 80° East 177 204 5,200  Climbing Miami Center
11:09AM 26.0062 -81.5066 138° Southeast  Level Estimated
11:09AM 26.1444 -81.4992 108° East 169 194 5,200  Level Miami Center
11:10AM 25.9817 -81.4618 110° East  Level Estimated
11:10AM 26.1231 -81.4567 119° Southeast 158 182 5,200  Level Miami Center
11:11AM 25.9716 -81.4107 102° East  Level FlightAware Approximate
11:11AM 26.0950 -81.4139 126° Southeast 163 188 5,200  Level Miami Center
11:12AM 26.0672 -81.3711 126° Southeast 163 188 5,200  Level Miami Center
11:13AM 26.0392 -81.3286 126° Southeast 163 188 5,200  Level Miami Center
11:14AM 26.0114 -81.2836 124° Southeast 168 193 5,200  Level Miami Center
11:15AM 25.9814 -81.2339 124° Southeast 173 199 5,200  Level Miami Center
11:16AM 25.9642 -81.1847 111° Southeast 173 199 5,200  Level Miami Center
11:16AM 25.9558 -81.1800 153° Southeast 177 204 5,200  Level Miami Center
11:17AM 25.9511 -81.1358 97° East 173 199 5,200  Level Miami Center
11:17AM 25.9350 -81.1122 127° Southeast 178 205 5,200  Level Miami Center
11:18AM 25.9317 -81.0867 98° East 173 199 5,200  Level Miami Center
11:18AM 25.9178 -81.0561 117° Southeast 179 206 5,200  Level Miami Center
11:19AM 25.9164 -81.0331 94° East 173 199 5,200  Level Miami Center
11:19AM 25.9025 -81.0072 121° Southeast 177 204 5,200  Level Miami Center
11:20AM 25.8992 -80.9817 98° East 173 199 5,200  Level Miami Center
11:20AM 25.8894 -80.9514 110° East 179 206 5,200  Level Miami Center
11:21AM 25.8900 -80.9306 88° East 173 199 5,200  Level Miami Center
11:21AM 25.8806 -80.8933 106° East 175 201 5,200 -120 Level Miami Center
11:22AM 25.8769 -80.8769 104° East 168 193 5,100 -720 Descending Miami Center
11:23AM 25.8397 -80.8594 157° South 187 215 4,500 -720 Descending Miami Center
11:23AM 25.8336 -80.8503 127° Southeast 163 188 4,400 -480 Descending Miami Center
11:23AM 25.7986 -80.8328 156° South 182 209 4,100 -240 Descending Miami Center
11:24AM 25.7906 -80.8233 133° Southeast 168 193 4,200 -120 Climbing Miami Center
11:24AM 25.7575 -80.8083 158° South 162 186 4,000 -300 Descending Miami Center
11:25AM 25.7472 -80.8011 148° Southeast 168 193 3,900 180 Descending Miami Center
11:25AM 25.7164 -80.7839 153° Southeast 161 185 4,200 120 Climbing Miami Center
11:26AM 25.6875 -80.7692 155° Southeast 155 178 4,100  Descending Miami Center
11:27AM 25.6547 -80.7497 152° Southeast 156 180 4,200  Climbing Miami Center
11:28AM 25.6203 -80.7142 137° Southeast 163 188 4,200  Level Miami Center
11:29AM 25.5961 -80.6719 122° Southeast 159 183 4,200  Level Miami Center
11:30AM 25.5700 -80.6364 129° Southeast 160 184 4,200  Level Miami Center
11:31AM 25.5417 -80.5942 127° Southeast 159 183 4,200  Level Miami Center
11:32AM 25.5178 -80.5567 125° Southeast 158 182 4,200  Level Miami Center
11:33AM 25.4872 -80.5189 132° Southeast 159 183 4,300 -600 Climbing Miami Center
11:34AM 25.4572 -80.4697 124° Southeast 190 219 3,000 -960 Descending Miami Center
11:35AM 25.4289 -80.4297 128° Southeast 181 208 2,400 -600 Descending Miami Center